#timestamp,LO_Frequency,Hit,StdDev 
1709438415.6,286046999.3,N
1709438435.4,286046999.4,N
1709438455.2,286047000.8,N
1709438475.1,286046998.5,N
1709438476.0,286046998.5,N
1709438495.8,286046998.3,N
1709438515.7,286046998.7,N
1709438535.5,286047000.3,N
1709438555.3,286046998.1,N
1709438575.2,286047001.2,N
1709438595.0,286047000.3,N
1709438595.9,286047000.3,N
1709438615.8,286047000.3,N
1709438635.6,286046999.7,N
1709438655.4,286047000.1,N
1709438675.3,286046999.9,N
1709438695.1,286046998.2,N
1709438715.8,286046999.6,N
1709438735.7,286046999.4,N
1709438755.5,286047001.1,N
1709438775.4,286046999.3,N
1709438795.2,286046997.2,N
1709438815.0,286046997.3,N
1709438815.9,286046997.3,N
1709438835.8,286046998.0,N
1709438855.6,286046997.3,N
1709438875.5,286046999.5,N
1709438895.3,286046999.0,N
1709438915.1,286046998.9,N
1709438935.9,286046998.4,N
1709438955.7,286046998.3,N
1709438975.5,286046999.2,N
1709438995.4,286046999.6,N
1709439015.2,286046999.4,N
1709439035.1,286046998.8,N
1709439036.0,286046998.8,N
1709439055.8,286046998.5,N
1709439075.6,286046999.4,N
1709439095.5,286046996.5,Y
1709439115.3,286047000.3,P
1709439135.2,286046998.6,N
1709439155.9,286047000.8,N
1709439175.7,286047001.2,N
1709439195.6,286047000.2,N
1709439215.4,286047000.7,N
1709439235.3,286046998.2,N
1709439255.1,286046998.2,N
1709439256.0,286046998.2,N
1709439275.8,286046998.3,N
1709439295.7,286046998.7,N
1709439315.5,286046999.3,N
1709439335.3,286046999.6,N
1709439355.2,286046999.0,N
1709439375.0,286046997.8,N
1709439375.9,286046997.8,N
1709439395.8,286046994.9,Y
1709439415.6,286046998.8,P
1709439435.4,286046999.4,P
1709439455.3,286046999.5,N
1709439475.1,286046999.0,Y
1709439495.9,286046998.2,P
1709439515.7,286046999.9,N
1709439535.5,286047000.2,N
1709439555.4,286047000.0,N
1709439575.2,286047001.0,N
1709439595.0,286046998.6,N
1709439595.9,286046998.6,N
1709439615.8,286046998.8,N
1709439635.6,286047001.2,N
1709439655.5,286047000.2,N
1709439675.3,286047000.5,N
1709439695.1,286047000.7,N
1709439715.9,286047000.9,N
1709439735.7,286046998.5,N
1709439755.5,286046998.3,N
1709439775.4,286046998.5,N
1709439795.2,286047000.9,N
1709439815.1,286047001.1,N
1709439816.0,286047001.1,N
1709439835.8,286047000.6,N
1709439855.6,286047002.8,N
1709439875.5,286047002.1,N
1709439895.3,286047002.8,N
1709439915.1,286047002.1,N
1709439935.9,286047001.6,N
1709439955.7,286047001.6,N
1709439975.6,286047002.1,N
1709439995.4,286047002.8,N
1709440015.2,286047000.2,N
1709440035.1,286047000.7,N
1709440036.0,286047000.7,N
1709440055.8,286046998.6,N
1709440075.7,286046998.1,N
1709440095.5,286046998.4,N
1709440115.3,286046998.1,N
1709440135.2,286047000.7,N
1709440155.0,286047000.7,N
1709440155.9,286047000.7,N
1709440175.7,286047000.1,N
1709440195.6,286047002.0,N
1709440215.4,286047001.3,N
1709440235.3,286047001.3,N
1709440255.1,286047004.2,N
1709440275.8,286047002.1,N
1709440295.7,286047004.4,N
1709440315.5,286047003.9,N
1709440335.4,286047003.2,N
1709440355.2,286047005.9,Y
1709440375.0,286047004.2,P
1709440375.9,286047004.2,N
1709440395.8,286047001.9,N
1709440415.6,286047002.6,N
1709440435.5,286046999.7,N
1709440455.3,286046999.8,N
1709440475.1,286047002.6,N
1709440495.9,286047000.6,N
1709440515.7,286047000.9,N
1709440535.5,286047000.6,N
1709440555.4,286046999.9,N
1709440575.2,286047000.6,N
1709440595.1,286046998.7,N
1709440596.0,286046998.7,N
1709440615.8,286046999.9,N
1709440635.6,286047000.0,N
1709440655.5,286046998.2,N
1709440675.3,286046998.3,N
1709440695.2,286046999.0,N
1709440715.9,286046998.3,N
1709440735.7,286046998.2,N
1709440755.6,286046999.8,N
1709440775.4,286047001.9,N
1709440795.2,286047001.8,N
1709440815.1,286047004.1,N
1709440816.0,286047004.1,N
1709440835.8,286047003.6,N
1709440855.7,286047005.6,N
1709440875.5,286047003.6,N
1709440895.3,286047003.1,N
1709440915.2,286047003.7,N
1709440935.0,286047003.2,N
1709440935.9,286047003.2,N
1709440955.7,286047004.0,N
1709440975.6,286047001.5,N
1709440995.4,286047004.4,N
1709441015.3,286047001.4,N
1709441035.1,286046999.8,N
1709441036.0,286046999.8,N
1709441055.8,286047000.6,N
1709441075.7,286047002.3,N
1709441095.5,286047002.2,N
1709441115.4,286047004.3,N
1709441135.2,286047001.7,N
1709441155.0,286047002.7,N
1709441155.9,286047002.7,N
1709441175.8,286047000.3,N
1709441195.6,286046999.7,N
1709441215.4,286047001.1,N
1709441235.3,286046999.1,N
1709441255.1,286046998.2,N
1709441275.9,286046998.2,N
1709441295.7,286047001.2,N
1709441315.5,286047001.0,N
1709441335.4,286047001.0,N
1709441355.2,286047001.2,N
1709441375.0,286046998.1,N
1709441376.0,286046998.1,N
1709441395.8,286046998.6,N
1709441415.6,286047000.9,N
1709441435.5,286047000.4,N
1709441455.3,286047001.2,N
1709441475.2,286046999.9,N
1709441495.9,286046999.8,N
1709441515.7,286047000.4,N
1709441535.6,286046998.7,N
1709441555.4,286047000.9,N
1709441575.3,286047000.0,N
1709441595.1,286047001.1,N
1709441596.0,286047001.1,N
1709441615.8,286047000.1,N
1709441635.7,286047000.2,N
1709441655.5,286047001.5,N
1709441675.3,286047002.1,N
1709441695.2,286047000.2,N
1709441715.0,286047002.7,N
1709441715.9,286047002.7,N
1709441735.8,286047001.1,N
1709441755.6,286047000.0,N
1709441775.4,286047000.1,N
1709441795.3,286046999.7,N
1709441815.1,286047001.6,N
1709441835.9,286047002.6,N
1709441855.7,286047002.2,N
1709441875.5,286047001.6,N
1709441895.4,286046999.7,N
1709441915.2,286047002.2,N
1709441935.1,286047001.8,N
1709441936.0,286047001.8,N
1709441955.8,286047001.4,N
1709441975.6,286047011.9,Y
1709441995.5,286047002.3,P
